[[{"header":{"parameterUnit":"m.s-1","parameterCategory":1,"la1":30.2991,"la2":30.254,"lo1":-89.0895,"lo2":-89.0444,"dy":0.0017,"dx":0.0017,"nx":28,"ny":28,"refTime":"2025-08-28T03:00:00:Z","depth":0,"parameterNumber":2,"parameterNumberName":"U-component_of_WINDS"},"data":[0,0,0,0,0,0,0,0,0,0,0,0,0,0,0,0,0,0,0,0,0,0,0,0,0,0,0,0,0,0,0,0,0,0,0,0,0,0,0,0,0,0,0,0,0,0,0,0,0,0,0,0,0,0,0,0,0,0,-5.4172,-5.417,0,-5.3984,-5.3982,-5.398,-5.3738,-5.3735,-5.3731,-5.3727,-5.3533,-5.3531,-5.353,0,0,0,0,0,0,0,0,0,0,0,0,0,-5.4321,-5.432,-5.4172,-5.417,-5.4167,-5.3984,-5.3982,-5.3979,-5.3739,-5.3734,-5.373,-5.3725,-5.3533,-5.3532,-5.353,0,0,0,0,0,0,0,0,0,0,0,0,0,-5.4207,-5.4319,-5.4172,-5.4026,-5.401,-5.3985,-5.3981,-5.3978,-5.374,-5.3734,-5.3728,-5.3723,-5.3534,-5.3532,-5.3529,-5.3632,0,0,-5.3522,-5.3521,0,0,0,0,0,0,0,0,-5.4214,-5.4202,-5.4049,-5.4036,-5.4019,-5.3879,-5.3963,-5.3862,-5.3742,-5.3843,-5.3727,-5.372,-5.3653,-5.364,-5.3618,-5.3623,-5.3615,-5.3522,-5.3521,-5.352,-5.3519,0,0,0,0,0,0,0,-5.4222,-5.4209,-5.4097,-5.4048,-5.4029,-5.3968,-5.3946,-5.3943,-5.3783,-5.3834,-5.3816,-5.3797,-5.3643,-5.362,-5.3611,-5.3612,-5.3522,-5.352,-5.3519,-5.3518,-5.369,-5.3696,0,0,0,0,0,0,-5.4252,-5.4217,-5.4103,-5.4092,-5.4104,-5.3971,-5.3945,-5.393,-5.3782,-5.3754,-5.3802,-5.3786,-5.3627,-5.3614,-5.3604,-5.3712,-5.352,-5.3518,-5.3516,-5.3684,-5.3691,-5.3698,0,0,0,0,0,0,-5.4256,-5.4244,-5.4111,-5.4149,-5.4128,-5.3974,-5.3959,-5.3929,-5.3906,-5.3758,-5.3728,-5.3808,-5.3622,-5.3607,-5.3626,-5.3702,-5.3517,-5.3514,-5.3677,-5.3686,-5.3694,-5.3932,0,0,0,0,0,0,-5.4262,-5.4247,-5.4285,-5.4152,-5.4127,-5.4138,-5.3963,-5.3929,-5.3903,-5.388,-5.3756,-5.373,-5.3616,-5.3631,-5.3624,-5.3695,-5.3513,-5.3669,-5.3681,-5.3692,-5.3917,-5.3948,-5.3975,0,0,0,0,0,-5.4268,-5.436,-5.4289,-5.4276,-5.4171,-5.4143,-5.4128,-5.3996,-5.391,-5.3946,-5.3851,-5.3734,-5.3696,-5.3635,-5.3625,-5.3697,-5.3664,-5.3678,-5.3691,-5.3904,-5.3942,-5.3974,0,0,0,0,0,0,-5.4505,-5.4339,-5.4259,-5.431,-5.4243,-5.4103,-5.4144,-5.4041,-5.3996,-5.3977,-5.3815,-5.3789,-5.3828,-5.3764,-5.37,-5.3788,-5.3662,-5.3675,-5.3828,-5.3863,-5.3891,-5.3905,-5.3511,0,0,0,0,0,-5.4564,-5.4556,-5.4411,-5.447,-5.4441,-5.43,-5.4282,-5.4186,-5.411,-5.408,-5.3986,-5.3916,-5.3887,-5.3871,-5.3837,-5.3907,-5.3875,-5.3952,-5.3981,-5.4005,-5.4017,-5.4047,-5.4079,-5.3742,-5.3742,-5.3741,0,0,-5.4684,-5.4593,-5.4597,-5.4516,-5.4452,-5.4446,-5.4277,-5.4278,-5.4272,-5.4079,-5.4091,-5.4021,-5.3932,-5.3977,-5.3992,-5.3925,-5.4103,-5.4022,-5.4043,-5.4041,-5.4064,-5.4096,-5.4125,-5.3751,-5.3749,-5.3748,0,0,-5.49,-5.4831,-5.4872,-5.4812,-5.4718,-5.4623,-5.4634,-5.4509,-5.4455,-5.4465,-5.432,-5.431,-5.4265,-5.4207,-5.4172,-5.4367,-5.4256,-5.436,-5.4511,-5.4543,-5.4569,-5.4592,-5.4659,-5.4686,-5.4373,-5.4373,-5.4374,0,-5.5061,-5.5047,-5.4906,-5.4916,-5.4884,-5.4711,-5.475,-5.4699,-5.4599,-5.458,-5.4507,-5.4447,-5.4374,-5.4402,-5.445,-5.4428,-5.4433,-5.4372,-5.4577,-5.4598,-5.4617,-5.468,-5.4706,-5.4386,-5.4385,-5.4384,-5.4382,0,-5.5249,-5.5242,-5.5286,-5.5194,-5.5167,-5.5193,-5.5054,-5.5044,-5.4951,-5.4865,-5.4877,-5.4784,-5.4727,-5.4727,-5.4637,-5.4743,-5.4704,-5.4607,-5.4477,-5.4665,-5.472,-5.4743,-5.4405,-5.44,-5.4397,-5.4393,0,0,-5.5607,-5.5437,-5.5456,-5.5411,-5.5295,-5.5286,-5.5304,-5.5249,-5.5243,-5.518,-5.5189,-5.5156,-5.5065,-5.5025,-5.4926,-5.4955,-5.5113,-5.4852,-5.4848,-5.4902,-5.5221,-5.5293,-5.5324,-5.504,-5.5044,-5.5047,-5.5228,0,-5.58,-5.5819,-5.5693,-5.5746,-5.5736,-5.5572,-5.5587,-5.5517,-5.5437,-5.5417,-5.5327,-5.5305,-5.5188,-5.5163,-5.5184,-5.5089,-5.5174,-5.5075,-5.5045,-5.5046,-5.507,-5.5353,-5.5429,-5.5604,-5.5249,-5.5253,-5.5255,0,-5.6026,-5.5976,-5.6029,-5.5909,-5.59,-5.5916,-5.5855,-5.5838,-5.5756,-5.5695,-5.5652,-5.5538,-5.5546,-5.5425,-5.5432,-5.5367,-5.5348,-5.53,-5.5303,-5.5293,-5.516,-5.5348,-5.5657,-5.5682,-5.5289,-5.5286,-5.5284,0,-5.6279,-5.6225,-5.6249,-5.6216,-5.6078,-5.6093,-5.6036,-5.5947,-5.5923,-5.587,-5.5851,-5.5801,-5.5772,-5.5735,-5.5611,-5.5534,-5.5632,-5.5501,-5.558,-5.5583,-5.5605,-5.5605,-5.5913,-5.5599,-5.5598,-5.5598,-5.5597,0,-5.6505,-5.6544,-5.636,-5.6375,-5.6412,-5.6267,-5.6308,-5.6235,-5.6158,-5.6154,-5.601,-5.601,-5.5847,-5.5829,-5.5732,-5.5751,-5.574,-5.569,-5.5663,-5.5701,-5.5708,-5.5684,-5.5668,-5.5604,-5.5603,-5.5602,-5.5601,0,-5.6794,-5.6673,-5.6687,-5.6556,-5.6524,-5.6557,-5.6444,-5.6451,-5.6363,-5.636,-5.6351,-5.6212,-5.6182,-5.6056,-5.5996,-5.5931,-5.5982,-5.5931,-5.601,-5.5992,-5.6077,-5.607,-5.6378,-5.641,-5.608,-5.6084,-5.6086,0,-5.6945,-5.697,-5.6841,-5.6829,-5.6778,-5.6761,-5.6734,-5.6593,-5.6571,-5.6479,-5.6498,-5.6457,-5.6416,-5.6377,-5.627,-5.6223,-5.6169,-5.628,-5.616,-5.6198,-5.6167,-5.6166,-5.6166,-5.6305,-5.6309,-5.6313,-5.6316,0,-5.7225,-5.7164,-5.7131,-5.7079,-5.7052,-5.7004,-5.6946,-5.6945,-5.6787,-5.677,-5.6738,-5.6708,-5.6647,-5.6608,-5.6543,-5.6483,-5.6373,-5.6355,-5.637,-5.6407,-5.6451,-5.6426,-5.6077,-5.6348,-5.6344,-5.6342,-5.634,-5.6339,-5.7446,-5.746,-5.7372,-5.734,-5.7283,-5.7233,-5.7233,-5.7145,-5.7116,-5.7056,-5.6974,-5.6953,-5.6869,-5.6771,-5.672,-5.6701,-5.6639,-5.6662,-5.6667,-5.6675,-5.6693,-5.6458,-5.6689,-5.6688,-5.6687,-5.6686,-5.6685,0,-5.7716,-5.7651,-5.7624,-5.7549,-5.7525,-5.7425,-5.7357,-5.7342,-5.7326,-5.7257,-5.722,-5.7184,-5.7145,-5.7036,-5.6986,-5.6991,-5.694,-5.6983,-5.6979,-5.6967,-5.6752,-5.6742,-5.7026,-5.7025,-5.7025,-5.7025,-5.7025,-5.7025,-5.7853,-5.7871,-5.78,-5.7788,-5.7722,-5.7701,-5.767,-5.7623,-5.7567,-5.7533,-5.75,-5.743,-5.7344,-5.7287,-5.7247,-5.7215,-5.7202,-5.7262,-5.7214,-5.7015,-5.6982,-5.6951,-5.6941,-5.7261,-5.7262,-5.7429,-5.7431,-5.7432]},{"header":{"parameterUnit":"m.s-1","parameterCategory":1,"la1":30.2991,"la2":30.254,"lo1":-89.0895,"lo2":-89.0444,"dy":0.0017,"dx":0.0017,"nx":28,"ny":28,"refTime":"2025-08-28T03:00:00:Z","depth":0,"parameterNumber":3,"parameterNumberName":"V-component_of_WINDS"},"data":[0,0,0,0,0,0,0,0,0,0,0,0,0,0,0,0,0,0,0,0,0,0,0,0,0,0,0,0,0,0,0,0,0,0,0,0,0,0,0,0,0,0,0,0,0,0,0,0,0,0,0,0,0,0,0,0,0,0,-2.1819,-2.1821,0,-2.2003,-2.2005,-2.2007,-2.2114,-2.2115,-2.2115,-2.2116,-2.2296,-2.23,-2.2304,0,0,0,0,0,0,0,0,0,0,0,0,0,-2.1547,-2.1552,-2.1818,-2.1821,-2.1823,-2.2003,-2.2005,-2.2008,-2.2114,-2.2115,-2.2115,-2.2116,-2.2294,-2.2299,-2.2304,0,0,0,0,0,0,0,0,0,0,0,0,0,-2.1692,-2.1553,-2.1818,-2.1898,-2.1907,-2.2002,-2.2005,-2.2008,-2.2114,-2.2115,-2.2115,-2.2116,-2.2292,-2.2299,-2.2305,-2.2332,0,0,-2.2325,-2.2328,0,0,0,0,0,0,0,0,-2.1683,-2.1701,-2.1884,-2.1893,-2.1903,-2.2037,-2.1976,-2.2117,-2.2114,-2.2035,-2.2116,-2.2116,-2.2208,-2.2222,-2.2255,-2.2341,-2.2349,-2.2326,-2.233,-2.2333,-2.2335,0,0,0,0,0,0,0,-2.1673,-2.1694,-2.1891,-2.1886,-2.1898,-2.1921,-2.1942,-2.2003,-2.2115,-2.2042,-2.205,-2.2071,-2.2213,-2.2248,-2.226,-2.2351,-2.2326,-2.2332,-2.2336,-2.2338,-2.2464,-2.2464,0,0,0,0,0,0,-2.1652,-2.1685,-2.1885,-2.1897,-2.1793,-2.1925,-2.1949,-2.1993,-2.2115,-2.2135,-2.207,-2.2075,-2.2236,-2.2252,-2.2266,-2.2304,-2.2333,-2.2339,-2.2343,-2.2465,-2.2464,-2.2464,0,0,0,0,0,0,-2.1646,-2.1669,-2.1878,-2.1793,-2.1822,-2.193,-2.1977,-2.1996,-2.2031,-2.2137,-2.2156,-2.2086,-2.2238,-2.2257,-2.2315,-2.2312,-2.2342,-2.2348,-2.2466,-2.2465,-2.2464,-2.238,0,0,0,0,0,0,-2.1637,-2.1666,-2.168,-2.1793,-2.1826,-2.1927,-2.1978,-2.1999,-2.2043,-2.2051,-2.2156,-2.2174,-2.224,-2.2305,-2.2321,-2.2321,-2.2353,-2.2466,-2.2465,-2.2464,-2.2384,-2.2376,-2.237,0,0,0,0,0,-2.1627,-2.1648,-2.168,-2.1704,-2.1847,-2.1926,-2.1945,-2.2022,-2.2043,-2.2056,-2.2123,-2.2171,-2.2309,-2.231,-2.233,-2.2331,-2.2467,-2.2466,-2.2464,-2.2387,-2.2378,-2.237,0,0,0,0,0,0,-2.153,-2.1664,-2.1702,-2.176,-2.1831,-2.1944,-2.1964,-2.2011,-2.2076,-2.208,-2.2171,-2.2194,-2.2242,-2.2292,-2.229,-2.2362,-2.2393,-2.2396,-2.2327,-2.232,-2.2313,-2.2299,-2.2358,0,0,0,0,0,-2.1516,-2.1572,-2.1686,-2.1726,-2.176,-2.1855,-2.1893,-2.1946,-2.2022,-2.2052,-2.2124,-2.2193,-2.2252,-2.2289,-2.2349,-2.2391,-2.2413,-2.2402,-2.2395,-2.2389,-2.239,-2.2412,-2.2407,-2.2459,-2.2459,-2.2459,0,0,-2.1486,-2.1566,-2.1596,-2.1708,-2.177,-2.1823,-2.188,-2.1934,-2.1973,-2.206,-2.2119,-2.2173,-2.2256,-2.2305,-2.2331,-2.2349,-2.238,-2.2388,-2.2382,-2.2386,-2.241,-2.2405,-2.24,-2.2459,-2.2459,-2.2459,0,0,-2.1459,-2.1527,-2.1567,-2.1627,-2.172,-2.1783,-2.1791,-2.1897,-2.1937,-2.1999,-2.2063,-2.2109,-2.221,-2.2265,-2.2306,-2.2296,-2.2341,-2.2313,-2.2278,-2.2298,-2.2294,-2.2291,-2.2284,-2.2281,-2.2313,-2.2313,-2.2313,0,-2.1409,-2.1496,-2.158,-2.1631,-2.1676,-2.1759,-2.1797,-2.185,-2.1956,-2.1984,-2.2004,-2.213,-2.2192,-2.2253,-2.225,-2.2282,-2.2292,-2.2301,-2.2288,-2.2286,-2.2284,-2.2278,-2.2276,-2.2309,-2.231,-2.231,-2.231,0,-2.1429,-2.1487,-2.1507,-2.161,-2.1657,-2.1701,-2.1789,-2.1826,-2.1874,-2.1933,-2.1992,-2.2069,-2.2144,-2.2163,-2.221,-2.223,-2.2238,-2.2272,-2.2305,-2.2273,-2.2269,-2.2268,-2.2303,-2.2305,-2.2306,-2.2307,0,0,-2.1347,-2.1495,-2.15,-2.1546,-2.1653,-2.1698,-2.1743,-2.1819,-2.1848,-2.1917,-2.1955,-2.2037,-2.2068,-2.2114,-2.2168,-2.2186,-2.2168,-2.2217,-2.222,-2.2203,-2.219,-2.2163,-2.2159,-2.2199,-2.2199,-2.2199,-2.2182,0,-2.1334,-2.1424,-2.1499,-2.1559,-2.1611,-2.1688,-2.1727,-2.1794,-2.185,-2.1899,-2.1959,-2.2015,-2.2053,-2.2081,-2.2103,-2.2166,-2.2167,-2.2168,-2.2231,-2.2232,-2.2206,-2.2158,-2.213,-2.211,-2.2182,-2.2181,-2.2181,0,-2.1332,-2.1399,-2.1464,-2.1563,-2.1587,-2.1621,-2.1695,-2.1743,-2.1818,-2.1857,-2.1907,-2.1963,-2.201,-2.2039,-2.2102,-2.2102,-2.2131,-2.2165,-2.2167,-2.2174,-2.2204,-2.2161,-2.2106,-2.2102,-2.218,-2.218,-2.2181,0,-2.1262,-2.1369,-2.1421,-2.1458,-2.1575,-2.1596,-2.1645,-2.1722,-2.1762,-2.1825,-2.1851,-2.1918,-2.1953,-2.2002,-2.2072,-2.2087,-2.2126,-2.2162,-2.2156,-2.2154,-2.216,-2.2159,-2.2107,-2.2183,-2.2183,-2.2183,-2.2183,0,-2.1239,-2.1274,-2.1391,-2.1423,-2.1464,-2.1549,-2.1586,-2.1641,-2.1708,-2.1748,-2.1818,-2.1854,-2.1946,-2.1991,-2.2046,-2.2088,-2.2104,-2.2134,-2.2147,-2.2126,-2.2122,-2.2146,-2.2148,-2.2182,-2.2182,-2.2182,-2.2182,0,-2.1168,-2.1248,-2.1309,-2.1415,-2.1441,-2.1466,-2.1555,-2.1586,-2.1644,-2.1694,-2.1711,-2.1802,-2.1858,-2.1934,-2.2014,-2.205,-2.2084,-2.2107,-2.2059,-2.2067,-2.2056,-2.2054,-2.2016,-2.2013,-2.2092,-2.2091,-2.209,0,-2.1147,-2.1177,-2.1285,-2.1318,-2.1365,-2.1418,-2.1459,-2.1542,-2.158,-2.1667,-2.1686,-2.1749,-2.1804,-2.1889,-2.196,-2.202,-2.2044,-2.2026,-2.2053,-2.2029,-2.204,-2.2036,-2.2037,-2.2018,-2.2017,-2.2016,-2.2015,0,-2.11,-2.1138,-2.1196,-2.1266,-2.1313,-2.1372,-2.1434,-2.1456,-2.155,-2.159,-2.165,-2.1692,-2.1773,-2.1832,-2.1901,-2.1948,-2.1995,-2.2006,-2.2008,-2.1985,-2.1955,-2.1968,-2.2038,-2.2006,-2.2007,-2.2008,-2.2008,-2.2009,-2.1053,-2.1081,-2.1161,-2.1221,-2.1276,-2.1331,-2.1365,-2.1428,-2.148,-2.1554,-2.1599,-2.1656,-2.1726,-2.1824,-2.1868,-2.191,-2.1929,-2.1932,-2.1932,-2.1931,-2.1922,-2.195,-2.1923,-2.1924,-2.1924,-2.1924,-2.1925,0,-2.1007,-2.1062,-2.1117,-2.1201,-2.1247,-2.1291,-2.136,-2.1395,-2.1445,-2.1508,-2.156,-2.1626,-2.1683,-2.1757,-2.1818,-2.1837,-2.186,-2.185,-2.1848,-2.1857,-2.1904,-2.1895,-2.183,-2.183,-2.183,-2.183,-2.183,-2.183,-2.0989,-2.1038,-2.1084,-2.1159,-2.1213,-2.1271,-2.1306,-2.1355,-2.1406,-2.1477,-2.1526,-2.1575,-2.1641,-2.1706,-2.1759,-2.1779,-2.1796,-2.1779,-2.1805,-2.1846,-2.1855,-2.1863,-2.1855,-2.1783,-2.1783,-2.1755,-2.1754,-2.1754]}]]